CAPE
0 1 0 0 0 0 0 0 0 0 0 0 0 0 0 0 0 0 0 0 0 0 0 0 736 1782 2023 2026 1834 1857 1985 2313 2331 2322 2138 1942 1924 1587 1599 1514 1669 1687 1522 1430
2 0 0 0 0 0 0 0 0 0 0 0 0 0 0 0 0 0 0 0 0 0 0 141 1176 2062 1931 2167 2167 2052 2009 2327 2235 2235 2258 2079 1929 1749 1636 1646 1735 1516 1475 1554
2 0 0 0 0 0 0 0 0 0 0 0 0 0 0 0 0 0 0 0 0 0 0 0 363 1310 1982 2268 2266 2105 2272 2459 2410 2455 2254 1892 1831 1558 1566 1610 1712 1531 1540 1602
8 3 0 0 0 0 0 0 0 0 0 0 0 0 0 0 0 0 0 0 0 0 0 0 0 269 1204 1904 2188 2195 2410 2397 2340 2174 1912 1924 1824 2023 1826 1894 1721 1462 1131 1040
0 0 30 11 0 6 0 0 0 0 0 0 0 0 0 0 0 0 0 0 0 0 0 0 0 0 656 1369 1591 1727 1842 2007 1851 1872 1914 2001 1961 1935 1553 1145 1001 906 617 396
29 3 26 7 0 10 14 12 3 0 0 0 0 0 0 0 0 0 0 0 0 0 0 0 0 208 785 993 1231 1378 1500 1576 1637 1831 1947 2037 2002 1595 1351 1193 901 591 434 161
8 37 32 37 26 18 25 20 10 2 0 0 0 0 0 0 0 0 0 0 0 0 0 0 0 262 737 1082 1249 1193 951 1019 1223 1304 1351 1416 1388 1176 896 746 414 165 23 0
2 1 32 63 32 1 2 6 0 0 0 0 0 0 0 0 0 0 0 0 0 0 0 0 7 36 239 620 695 682 685 745 736 652 532 378 242 102 25 10 0 0 0 0
0 0 18 81 107 34 13 11 0 1 0 0 0 1 0 0 0 3 4 2 1 1 0 0 32 152 326 448 468 386 255 132 44 17 11 0 0 0 0 0 0 0 0 0
8 0 17 94 110 47 21 0 5 9 2 1 0 0 0 0 0 1 3 5 2 1 4 2 3 8 14 24 42 42 33 21 9 0 0 0 0 0 0 0 0 0 0 0
4 17 2 59 106 72 45 14 2 13 26 14 0 0 10 0 0 1 6 2 4 4 3 4 3 6 3 3 0 0 0 0 0 0 0 0 0 0 0 0 0 0 0 0
0 38 0 9 127 57 66 1 26 3 1 9 3 46 76 18 2 6 6 5 4 1 0 0 0 0 0 0 0 0 0 0 0 0 0 0 0 0 0 0 0 0 0 0
0 25 20 25 93 162 163 51 20 16 8 35 9 13 1 3 4 4 3 1 0 0 0 0 0 0 0 0 0 0 0 0 0 0 0 0 0 0 0 0 0 0 0 0
2 26 0 11 29 28 15 71 21 27 17 24 27 0 4 1 4 4 0 0 0 0 0 0 0 0 0 0 0 0 0 0 0 0 0 0 0 0 0 0 0 0 0 0
5 70 11 74 127 208 145 33 28 10 4 30 91 15 2 4 5 2 0 0 0 0 0 0 0 0 0 0 0 0 0 0 0 0 0 0 0 0 0 0 0 0 0 0
2 33 0 148 53 48 71 51 25 4 1 87 101 178 3 3 1 0 1 0 0 0 0 0 0 0 0 0 0 0 0 0 0 0 0 0 0 0 0 0 0 0 1 6
1 80 77 12 9 9 5 24 6 2 121 217 110 11 2 3 1 0 0 0 0 0 0 0 0 0 0 0 0 0 0 0 0 0 0 0 0 0 0 0 0 3 9 15
0 128 79 19 3 8 0 2 1 4 328 328 99 4 3 2 1 0 0 0 0 0 0 0 0 0 0 0 0 0 0 0 0 0 0 0 0 0 0 5 5 7 16 12
111 169 5 3 57 4 17 0 2 31 182 309 17 1 1 0 0 0 0 0 0 0 0 0 0 0 0 0 0 0 0 0 0 0 0 0 0 1 2 3 10 12 10 11
107 130 93 141 8 19 92 58 158 128 0 178 33 0 0 0 0 6 0 0 0 0 0 0 0 0 0 0 0 0 0 0 0 0 0 0 1 1 0 8 8 2 12 18
1 126 132 73 16 4 5 0 3 26 12 20 2 1 0 3 0 0 0 0 0 0 0 0 0 0 0 0 0 0 0 0 0 0 0 0 4 3 4 6 7 3 12 20
0 0 0 73 24 3 1 4 51 2 0 0 1 0 0 0 0 0 0 0 0 0 0 0 0 0 0 0 0 0 0 0 0 0 0 0 1 1 0 6 5 4 2 0
0 2 0 1 4 3 3 1 1 2 2 0 0 0 0 0 0 0 0 0 2 1 1 0 0 0 0 1 0 0 0 0 0 1 1 1 1 1 2 5 5 0 0 0
0 1 1 1 2 2 5 0 0 1 0 0 0 0 0 0 0 0 0 0 0 0 0 0 0 2 2 1 0 1 1 0 1 1 1 1 1 0 3 5 2 0 0 0
2 1 4 5 2 3 4 5 3 1 0 1 0 0 0 0 0 0 0 0 0 0 0 0 1 3 1 1 1 2 3 1 2 1 1 2 2 0 1 1 1 0 0 0
1 1 1 3 1 1 2 0 2 6 4 1 0 0 0 0 0 0 0 0 0 0 1 1 2 2 1 1 2 1 1 1 2 1 1 0 2 2 0 0 0 0 0 0
CIN
0 -5 0 0 0 0 0 0 0 0 0 0 0 0 0 0 0 0 0 0 0 0 0 0 -69 -50 -41 -53 -83 -88 -79 -44 -35 -33 -24 -10 -7 -9 -8 -6 -5 -11 -12 -28
-3 0 0 0 0 0 0 0 0 0 0 0 0 0 0 0 0 0 0 0 0 0 0 -104 -72 -56 -89 -77 -101 -101 -80 -58 -52 -40 -19 -9 -6 -4 -3 -4 -13 -34 -41 -22
-3 0 0 -1 -1 0 0 0 0 0 0 0 0 0 0 0 0 0 0 0 0 0 0 0 -84 -78 -58 -52 -68 -89 -63 -48 -39 -22 -26 -44 -35 -36 -16 -12 -6 -24 -19 -11
-3 -4 -1 0 -2 0 0 0 0 0 0 0 0 0 0 0 0 0 0 0 0 0 0 0 0 -96 -84 -44 -43 -62 -49 -47 -45 -53 -48 -47 -17 -2 -14 -6 -10 -22 -57 -49
0 -2 -3 -3 -1 -4 0 0 0 0 0 0 0 0 0 0 0 0 0 0 0 0 0 0 0 0 -87 -103 -121 -120 -96 -70 -92 -70 -45 -39 -15 -17 -47 -92 -109 -91 -142 -186
-6 -2 -6 -3 0 -5 -6 -6 -4 0 0 0 0 0 0 0 0 0 0 0 0 0 0 0 0 -159 -148 -158 -151 -143 -126 -116 -107 -67 -50 -35 -34 -57 -69 -75 -88 -147 -168 -255
-4 -11 -6 -6 -4 -7 -7 -9 -7 -7 0 0 0 0 0 0 0 0 0 0 0 0 0 0 0 -141 -165 -134 -111 -146 -209 -189 -145 -129 -111 -91 -94 -115 -140 -127 -185 -253 -322 0
-5 -1 -6 -7 -7 -1 -4 -6 0 0 0 0 0 0 0 0 0 0 0 0 0 0 0 0 -295 -386 -298 -214 -211 -226 -222 -203 -210 -232 -255 -281 -301 -350 -407 -417 -4 0 0 0
-1 0 -5 -7 -6 -4 -6 -10 -1 -6 0 0 0 -5 0 0 0 0 0 0 0 0 0 0 -298 -232 -208 -206 -213 -234 -269 -314 -386 -452 -483 0 0 0 0 0 0 0 0 0
-2 -1 -4 -6 -7 -5 -6 0 -16 -9 -12 -8 0 0 0 0 0 0 -2 0 0 -1 0 0 -1 -204 -214 -320 -311 -318 -332 -377 -424 0 0 0 0 0 0 0 0 0 0 0
0 -3 -5 -6 -8 -9 -8 -17 -9 -8 -10 -7 0 0 -16 0 0 0 0 0 0 0 -1 -1 -1 -113 -89 -119 -36 0 0 0 0 0 0 0 0 0 0 0 0 0 0 0
0 -7 -1 -6 -4 -8 -6 -2 -9 -5 -6 -11 -8 -6 -7 -16 0 0 0 0 -1 -1 0 -1 0 0 0 0 0 0 0 0 0 0 0 0 0 0 0 0 0 0 0 0
0 -7 -3 -26 -18 -8 -10 -5 -7 -8 -10 -4 -8 -4 -4 -3 0 0 0 0 0 0 0 0 0 0 0 0 0 0 0 0 0 0 0 0 0 0 0 0 0 0 0 0
-1 -1 0 -1 -15 -8 -8 -8 -11 -8 -5 -7 -11 0 0 0 0 0 0 0 0 0 0 0 0 0 0 0 0 0 0 0 0 0 0 0 0 0 0 0 0 0 0 0
0 -2 -16 -41 -5 -3 -5 -6 -8 -10 -15 -7 -13 -95 0 0 0 0 0 0 0 0 0 0 0 0 0 0 0 0 0 0 0 0 0 0 0 0 0 0 0 0 0 0
-1 -1 0 -3 -2 -7 -6 -4 -10 -14 -18 -4 -28 -23 -1 0 0 0 0 0 0 0 0 0 0 0 0 0 0 0 0 0 0 0 0 0 0 0 0 0 0 0 -1 -1
-3 -1 -3 -3 -2 -11 -15 -6 -8 -12 -5 -2 -4 -9 0 0 0 0 0 0 0 0 0 0 0 0 0 0 0 0 0 0 0 0 0 0 0 0 0 0 -1 -1 -1 -1
0 0 -8 -15 -4 -7 -1 -7 -6 -4 -1 -3 -89 -105 0 0 0 0 0 0 0 0 0 0 0 0 0 0 0 0 0 0 0 0 0 0 0 0 -1 -1 -1 -1 0 -1
-1 -1 -4 -3 -3 -6 -3 -3 -4 -2 -30 -9 -113 0 0 0 0 0 0 0 0 0 0 0 0 0 0 0 0 0 0 0 0 0 0 0 0 -1 -1 -2 -1 -1 -2 -1
-2 -10 -12 -2 -1 -1 -1 -3 -24 -9 -14 -21 -100 0 0 0 0 0 0 0 0 0 0 0 0 0 0 0 0 0 0 0 0 0 0 0 -1 -1 -1 -1 -1 -2 -2 -1
-7 -1 -1 -2 -1 -1 0 0 -32 -4 -25 -70 -1 -1 0 -10 0 0 0 0 0 0 0 0 0 0 0 0 0 0 0 0 0 0 0 -1 -1 -1 -1 -1 -1 -8 -8 -2
0 0 0 -1 -3 -1 0 -57 -24 -7 -1 0 -1 -1 0 0 0 0 0 0 0 0 0 0 0 0 0 -1 -1 0 0 0 0 0 -1 -1 0 -1 -1 -1 -1 0 -1 -1
0 0 0 0 0 0 0 0 0 -1 -1 0 0 0 0 0 0 0 0 0 0 0 0 0 0 0 -1 0 -1 0 -1 0 -1 -1 -1 -1 -1 -1 0 -1 -1 0 0 0
0 0 0 0 0 0 0 0 0 -1 0 0 0 0 0 0 0 0 0 0 0 0 0 0 -1 0 0 -1 -1 -1 -1 -1 -1 -1 -1 -1 0 0 -2 -1 -1 0 0 0
0 0 0 0 0 0 0 0 0 0 0 0 0 0 0 0 0 0 0 0 0 0 0 0 0 0 0 -1 0 -1 -1 -2 -1 -1 -1 0 0 0 -1 -1 -1 -1 0 0
0 0 0 0 0 0 0 0 0 0 0 0 0 0 0 0 0 0 0 0 0 0 0 0 0 0 -1 -1 -2 -2 -1 -1 -1 -1 -1 -1 0 0 0 -1 -1 0 0 0
Wind_Speed
41 45 53 46 43 42 35 39 42 34 29 31 33 32 28 17 19 24 26 24 25 22 18 15 15 14 13 15 14 13 11 10 9 9 9 10 12 13 13 13 13 14 16 18
35 58 51 43 40 41 44 38 38 29 28 29 31 35 34 31 29 24 22 21 20 18 16 14 12 11 14 14 14 12 11 10 9 9 9 10 10 12 14 13 14 15 16 18
42 44 50 47 46 44 45 41 36 35 29 29 27 38 38 35 32 27 23 20 17 17 15 12 11 11 11 12 12 11 9 8 7 7 7 9 10 12 13 13 14 15 18 19
45 39 34 50 49 43 45 35 30 32 32 36 31 38 38 34 30 27 24 20 17 17 18 17 14 10 10 10 9 9 7 5 4 5 8 9 12 14 14 14 15 17 19 20
44 43 43 41 49 40 44 33 31 26 29 28 31 36 29 31 28 23 20 18 16 14 15 16 16 11 8 6 6 6 6 7 7 7 9 8 11 11 12 14 15 17 17 19
41 31 36 40 36 39 33 33 33 30 30 39 35 36 29 28 29 23 19 16 15 15 14 13 12 9 8 7 6 6 6 6 7 8 9 11 10 11 13 15 16 16 17 19
34 43 31 33 33 31 37 35 37 38 38 44 32 33 22 20 21 19 18 16 14 13 12 10 8 8 8 7 6 5 5 6 7 8 9 9 9 11 12 13 14 15 18 21
24 40 40 32 39 36 41 42 42 45 43 36 26 34 26 18 17 15 13 12 11 9 8 9 7 6 5 5 6 5 4 4 4 5 7 8 8 9 11 14 16 19 21 23
21 26 29 30 31 33 41 46 34 31 34 29 29 23 19 16 16 13 11 9 7 7 5 4 3 2 2 2 2 2 3 3 4 5 6 8 10 11 13 15 17 19 23 24
22 20 20 23 30 31 36 39 38 33 38 35 31 31 25 22 17 13 11 8 6 5 4 3 2 2 1 2 3 4 5 5 6 6 8 10 11 13 14 16 19 21 22 24
19 18 9 28 33 39 38 39 35 30 29 31 31 27 16 19 16 14 10 8 8 7 7 6 6 6 5 5 4 5 5 5 7 8 9 11 12 14 16 18 20 22 23 24
24 22 26 38 25 37 36 39 36 36 32 30 25 22 19 14 15 13 11 10 9 8 8 7 6 5 5 6 6 6 7 7 8 9 10 12 14 16 17 19 21 23 25 26
26 23 34 31 29 40 32 41 33 28 25 28 27 22 15 14 15 13 13 11 10 9 7 6 5 5 5 5 5 6 7 8 10 10 12 14 16 17 19 21 24 25 26 27
25 28 41 36 35 32 29 36 34 26 28 27 24 19 19 18 17 15 13 12 10 8 6 5 3 3 3 4 5 7 9 10 11 12 14 15 18 21 23 24 25 26 26 27
18 31 31 22 17 42 47 34 34 26 25 24 16 20 22 19 18 16 14 12 10 8 5 3 2 1 2 4 6 9 10 12 13 15 17 20 22 23 25 26 26 26 27 26
15 26 32 27 35 46 48 47 39 29 19 18 17 18 19 18 17 15 13 12 10 7 5 3 2 1 3 6 8 10 12 14 16 18 21 23 24 25 26 27 27 26 25 26
16 28 29 28 8 30 42 49 43 21 20 14 18 19 21 20 17 15 13 11 8 6 4 2 2 3 6 8 11 13 15 17 19 21 23 24 25 26 26 26 25 25 24 25
20 23 13 12 24 23 20 40 33 24 14 13 13 18 19 17 14 11 10 11 9 5 3 2 3 5 8 11 13 15 18 20 21 23 25 25 25 25 25 24 23 22 23 25
12 14 14 26 20 8 13 20 37 23 18 9 13 17 18 16 14 9 8 8 6 4 5 5 7 9 11 13 16 17 19 21 22 24 26 26 26 25 24 23 23 23 24 24
7 20 17 16 16 21 11 13 22 19 21 14 17 24 22 19 16 17 12 8 7 4 6 7 10 12 13 16 18 19 21 22 24 25 27 26 23 22 21 21 21 22 23 23
11 9 9 10 15 12 14 16 26 31 23 9 12 13 14 18 14 11 8 7 5 5 6 9 11 13 15 17 18 19 22 23 25 26 24 21 21 21 20 20 20 22 22 22
12 14 13 15 15 16 12 17 23 19 5 12 15 13 9 9 11 8 6 5 5 6 8 10 12 14 16 18 19 20 22 24 24 22 20 21 21 21 19 20 20 21 22 21
15 13 17 14 15 16 15 13 8 5 10 12 11 12 12 10 9 6 4 4 6 7 9 13 14 15 16 17 19 21 23 24 24 22 20 19 19 19 18 19 20 20 21 21
13 12 17 20 9 8 9 5 2 4 7 9 8 8 9 10 7 5 2 2 5 7 9 11 14 15 16 18 19 21 23 24 23 21 20 19 18 18 17 18 19 20 20 20
13 15 14 15 12 5 5 6 5 7 8 10 8 7 8 6 5 4 4 5 7 9 10 12 13 15 16 18 19 20 22 23 22 20 20 20 18 17 17 17 19 19 20 20
10 16 17 17 13 6 9 8 6 8 10 8 10 7 5 3 6 3 5 7 9 10 11 12 14 15 16 18 19 21 22 23 23 22 21 21 19 18 18 17 15 17 17 18
Wind_Direction
240 238 236 235 239 245 252 250 249 254 250 247 249 252 253 262 260 258 256 258 259 257 257 263 257 248 234 238 239 246 258 263 263 269 272 278 285 293 300 306 310 310 312 313
239 237 239 241 242 242 244 248 247 251 249 246 248 250 253 255 259 261 257 255 256 250 252 258 261 250 241 237 236 241 251 258 261 271 282 294 297 301 305 310 312 315 320 320
239 247 241 240 239 238 239 243 244 242 245 250 251 248 249 252 255 256 256 256 251 245 244 251 259 259 251 237 233 234 242 248 251 275 295 306 310 312 310 312 313 316 319 320
243 243 246 233 236 233 235 237 243 241 237 244 243 249 245 246 247 249 248 249 248 247 252 257 261 256 253 249 243 238 237 232 250 270 295 299 301 302 315 320 324 325 329 326
240 238 236 235 233 230 236 228 235 238 240 246 240 247 248 241 243 242 242 239 244 251 253 256 263 263 253 248 242 239 239 252 267 282 297 302 304 313 321 322 325 328 334 337
241 243 243 238 233 231 231 223 231 239 243 244 241 241 242 242 239 240 234 244 248 252 255 258 262 257 255 254 252 252 255 272 281 289 299 300 304 312 318 320 320 327 332 336
238 235 237 232 223 223 221 210 220 230 235 241 236 239 267 240 247 231 237 242 249 253 252 247 249 254 259 260 257 261 273 289 298 301 308 313 317 326 329 330 333 334 334 334
234 230 230 226 224 219 214 209 217 221 227 230 228 241 237 246 246 245 245 246 247 245 248 245 250 250 257 263 271 276 294 313 330 331 331 334 341 344 344 337 335 333 330 332
169 241 224 228 221 217 211 218 221 234 231 224 230 244 244 238 238 235 231 229 227 229 223 215 212 223 245 275 311 5 11 16 6 2 358 355 352 347 347 345 339 335 330 331
170 235 182 222 216 218 217 215 220 233 219 223 232 235 238 225 223 217 211 199 181 165 151 153 150 135 101 73 65 49 44 35 29 13 359 352 348 349 348 342 337 335 334 333
170 151 197 212 220 213 214 214 223 228 224 225 228 231 240 213 208 198 186 169 155 137 128 120 107 95 84 75 62 45 29 17 3 360 354 350 346 344 343 343 340 336 335 336
165 145 146 165 219 215 222 216 218 221 223 229 228 232 245 204 197 183 167 155 143 132 126 115 104 93 77 65 51 35 22 12 2 356 352 343 337 339 345 342 337 336 334 336
160 140 136 203 218 212 211 213 214 224 227 228 223 233 222 198 187 177 161 153 143 136 126 115 103 87 67 47 26 15 3 357 352 347 342 332 334 340 339 337 336 335 336 337
182 144 162 165 161 156 196 207 211 220 221 224 234 211 200 191 180 171 161 152 149 143 133 127 113 79 42 18 6 360 353 351 341 340 335 337 333 333 332 335 336 336 338 337
204 177 195 213 153 156 166 204 209 217 229 225 215 197 193 182 174 168 158 152 145 139 138 136 126 66 12 357 353 350 350 347 338 332 330 326 327 329 331 334 335 336 335 338
214 180 194 171 176 166 165 191 205 214 234 237 191 190 184 176 167 168 170 162 159 155 150 143 110 359 341 334 337 334 336 332 324 322 318 323 326 327 330 331 331 334 338 340
192 167 182 180 141 184 181 183 194 212 226 204 185 185 167 174 177 175 175 183 171 163 170 202 273 319 327 327 324 333 322 316 317 312 319 331 332 332 332 334 335 336 343 345
189 185 213 188 192 198 205 192 201 209 210 214 171 171 171 168 162 167 182 186 188 189 187 246 286 300 310 318 320 319 313 315 311 313 326 332 333 335 336 337 340 344 344 345
220 206 194 179 191 142 188 194 195 202 213 201 148 154 153 151 151 188 201 191 185 204 233 266 285 299 313 316 314 315 313 316 316 322 329 332 333 335 337 340 342 343 344 346
214 181 192 195 194 193 190 200 205 215 208 204 139 137 142 150 193 207 200 199 207 236 260 281 299 305 310 305 307 306 314 319 323 328 329 334 343 346 348 348 348 348 348 348
212 206 196 202 209 210 214 217 206 203 211 168 144 154 161 219 218 170 184 204 231 265 286 300 302 314 321 303 303 312 321 319 321 328 341 353 355 352 353 354 355 353 353 352
219 210 210 208 202 203 236 211 203 216 156 150 128 135 147 131 132 154 179 216 257 291 301 309 313 310 320 308 303 315 326 321 325 347 358 359 354 354 356 355 356 355 351 351
203 211 204 208 207 207 214 209 218 193 124 129 135 134 124 130 136 144 181 240 275 301 311 305 312 310 314 310 310 320 321 319 332 346 358 4 5 2 2 359 356 356 353 346
231 239 203 195 225 223 228 222 146 118 125 148 155 139 131 125 141 127 103 308 328 326 327 323 313 311 315 316 318 318 316 325 339 348 358 4 5 4 9 8 1 357 353 344
232 225 221 205 214 217 207 192 159 109 111 112 123 122 117 125 110 93 50 12 357 351 335 322 317 318 319 321 322 322 328 335 345 355 359 2 5 6 6 7 1 358 357 345
241 210 205 203 210 196 187 180 155 117 99 108 108 114 107 106 99 66 30 14 3 346 342 336 332 329 326 323 327 334 340 346 351 352 355 360 5 5 1 359 2 7 2 351